QFA580 YBBN-YBHM

Flight info

Callsign QFA580
Flight time 1h 40m
Altitude 34000
Route DCT BN V308 MK B462 OVRON DCT
Aircraft B738/M-SDE2E3FGHIRWXY/LB1

Departure

Time 2026-05-03 21:29
Airport Brisbane International Airport (YBBN)

Arrival

Time 2026-05-03 23:10
Airport Hamilton Island Airport (YBHM)
Time Latitude Longitude Altitude Speed Heading
2026-05-03 21:13 -27.38429 153.12157 17 ft 0 kts 275°
2026-05-03 21:17 -27.38430 153.12163 17 ft 4 kts 273°
2026-05-03 21:17 -27.38427 153.12192 17 ft 4 kts 248°
2026-05-03 21:18 -27.38416 153.12217 17 ft 2 kts 240°
2026-05-03 21:18 -27.38413 153.12222 17 ft 0 kts 240°
2026-05-03 21:22 -27.38426 153.12216 18 ft 4 kts 186°
2026-05-03 21:22 -27.38461 153.12243 17 ft 11 kts 139°
2026-05-03 21:22 -27.38522 153.12338 17 ft 16 kts 126°
2026-05-03 21:23 -27.38545 153.12433 17 ft 12 kts 68°
2026-05-03 21:23 -27.38480 153.12486 17 ft 12 kts 25°
2026-05-03 21:23 -27.38402 153.12531 17 ft 13 kts 26°
2026-05-03 21:23 -27.38305 153.12586 17 ft 17 kts 26°
2026-05-03 21:24 -27.38187 153.12654 17 ft 21 kts 31°
2026-05-03 21:24 -27.38048 153.12734 17 ft 23 kts 26°
2026-05-03 21:24 -27.37893 153.12821 17 ft 26 kts 26°
2026-05-03 21:24 -27.37720 153.12919 17 ft 29 kts 27°
2026-05-03 21:25 -27.37532 153.13027 17 ft 31 kts 27°
2026-05-03 21:25 -27.37356 153.13131 17 ft 22 kts 27°
2026-05-03 21:25 -27.37271 153.13234 17 ft 17 kts 102°
2026-05-03 21:25 -27.37322 153.13342 17 ft 10 kts 117°
2026-05-03 21:26 -27.37328 153.13355 17 ft 0 kts 118°
2026-05-03 21:27 -27.37341 153.13376 18 ft 8 kts 128°
2026-05-03 21:28 -27.37412 153.13427 19 ft 16 kts 164°
2026-05-03 21:28 -27.37504 153.13404 19 ft 0 kts 206°
2026-05-03 21:29 -27.37638 153.13328 20 ft 59 kts 207°
2026-05-03 21:29 -27.38249 153.12982 20 ft 134 kts 206°
2026-05-03 21:29 -27.39239 153.12418 305 ft 172 kts 206°
2026-05-03 21:29 -27.40291 153.11829 1348 ft 166 kts 210°
2026-05-03 21:30 -27.41131 153.10904 2112 ft 183 kts 237°
2026-05-03 21:30 -27.41525 153.09426 2435 ft 215 kts 269°
2026-05-03 21:30 -27.41108 153.07754 2641 ft 238 kts 304°
2026-05-03 21:30 -27.39819 153.06533 3091 ft 245 kts 340°
2026-05-03 21:31 -27.38163 153.06299 3560 ft 254 kts 14°
2026-05-03 21:31 -27.36624 153.07245 4197 ft 256 kts 50°
2026-05-03 21:31 -27.35894 153.08992 5002 ft 255 kts 84°
2026-05-03 21:31 -27.35812 153.10964 5798 ft 259 kts 79°
2026-05-03 21:32 -27.35058 153.12803 6548 ft 265 kts 49°
2026-05-03 21:32 -27.33533 153.13987 7253 ft 274 kts 19°
2026-05-03 21:32 -27.31625 153.14239 7968 ft 281 kts 356°
2026-05-03 21:32 -27.29669 153.13909 8729 ft 286 kts 349°
2026-05-03 21:33 -27.27707 153.13467 9491 ft 289 kts 348°
2026-05-03 21:33 -27.25777 153.13058 10228 ft 293 kts 348°
2026-05-03 21:33 -27.23688 153.12664 10623 ft 310 kts 349°
2026-05-03 21:33 -27.21475 153.12297 10792 ft 333 kts 351°
2026-05-03 21:34 -27.19105 153.11946 11004 ft 352 kts 351°
2026-05-03 21:34 -27.16731 153.11627 11478 ft 360 kts 352°
2026-05-03 21:34 -27.14141 153.11301 12155 ft 362 kts 352°
2026-05-03 21:34 -27.11629 153.10997 12836 ft 364 kts 352°
2026-05-03 21:35 -27.09102 153.10699 13455 ft 367 kts 352°
2026-05-03 21:35 -27.06550 153.10400 14055 ft 370 kts 352°
2026-05-03 21:35 -27.04041 153.10108 14566 ft 373 kts 352°
2026-05-03 21:35 -27.01393 153.09801 15127 ft 375 kts 352°
2026-05-03 21:36 -26.98788 153.09499 15666 ft 378 kts 352°
2026-05-03 21:36 -26.96166 153.09195 16196 ft 380 kts 352°
2026-05-03 21:36 -26.93521 153.08889 16728 ft 383 kts 352°
2026-05-03 21:36 -26.90897 153.08585 17220 ft 386 kts 352°
2026-05-03 21:37 -26.88222 153.08275 17736 ft 388 kts 352°
2026-05-03 21:37 -26.85526 153.07963 18246 ft 391 kts 352°
2026-05-03 21:37 -26.82813 153.07649 18702 ft 393 kts 351°
2026-05-03 21:37 -26.80088 153.07335 19144 ft 395 kts 351°
2026-05-03 21:38 -26.77345 153.07019 19597 ft 396 kts 351°
2026-05-03 21:38 -26.74597 153.06701 20035 ft 398 kts 351°
2026-05-03 21:38 -26.71832 153.06361 20461 ft 399 kts 348°
2026-05-03 21:38 -26.69127 153.05690 20892 ft 397 kts 338°
2026-05-03 21:39 -26.66552 153.04589 21357 ft 397 kts 334°
2026-05-03 21:39 -26.63994 153.03413 21800 ft 398 kts 334°
2026-05-03 21:39 -26.61431 153.02226 22224 ft 400 kts 334°
2026-05-03 21:39 -26.58849 153.01040 22616 ft 402 kts 334°
2026-05-03 21:40 -26.56257 152.99860 23037 ft 404 kts 334°
2026-05-03 21:40 -26.53647 152.98681 23481 ft 405 kts 333°
2026-05-03 21:40 -26.51032 152.97507 23867 ft 406 kts 333°
2026-05-03 21:40 -26.48438 152.96344 24163 ft 408 kts 333°
2026-05-03 21:41 -26.45797 152.95162 24471 ft 410 kts 333°
2026-05-03 21:41 -26.43143 152.93975 24810 ft 411 kts 333°
2026-05-03 21:41 -26.40488 152.92789 25144 ft 412 kts 333°
2026-05-03 21:41 -26.37820 152.91597 25463 ft 413 kts 333°
2026-05-03 21:42 -26.35145 152.90401 25752 ft 415 kts 333°
2026-05-03 21:42 -26.32459 152.89193 26050 ft 416 kts 332°
2026-05-03 21:42 -26.29887 152.87742 26363 ft 413 kts 324°
2026-05-03 21:42 -26.27555 152.85902 26655 ft 411 kts 318°
2026-05-03 21:43 -26.25305 152.83922 26939 ft 412 kts 318°
2026-05-03 21:43 -26.23057 152.81932 27216 ft 414 kts 318°
2026-05-03 21:43 -26.20796 152.79936 27499 ft 415 kts 318°
2026-05-03 21:43 -26.18526 152.77941 27781 ft 417 kts 318°
2026-05-03 21:44 -26.16241 152.75942 28054 ft 418 kts 318°
2026-05-03 21:44 -26.13949 152.73945 28306 ft 419 kts 318°
2026-05-03 21:44 -26.11649 152.71946 28577 ft 420 kts 318°
2026-05-03 21:44 -26.09352 152.69952 28950 ft 418 kts 318°
2026-05-03 21:45 -26.07094 152.67995 29388 ft 415 kts 318°
2026-05-03 21:45 -26.04843 152.66046 29795 ft 413 kts 318°
2026-05-03 21:45 -26.02577 152.64083 30156 ft 413 kts 318°
2026-05-03 21:45 -26.00312 152.62122 30470 ft 412 kts 318°
2026-05-03 21:46 -25.98055 152.60169 30776 ft 411 kts 318°
2026-05-03 21:46 -25.95805 152.58222 31066 ft 410 kts 318°
2026-05-03 21:46 -25.93550 152.56272 31336 ft 410 kts 317°
2026-05-03 21:46 -25.91302 152.54328 31624 ft 410 kts 317°
2026-05-03 21:47 -25.89053 152.52385 31928 ft 409 kts 317°
2026-05-03 21:47 -25.86807 152.50447 32215 ft 409 kts 317°
2026-05-03 21:47 -25.84563 152.48510 32500 ft 408 kts 316°
2026-05-03 21:47 -25.82320 152.46575 32770 ft 408 kts 316°
2026-05-03 21:48 -25.80077 152.44642 33044 ft 408 kts 316°
2026-05-03 21:48 -25.77840 152.42715 33333 ft 407 kts 316°
2026-05-03 21:48 -25.75601 152.40786 33573 ft 407 kts 316°
2026-05-03 21:48 -25.73362 152.38858 33811 ft 408 kts 316°
2026-05-03 21:49 -25.71121 152.36930 34090 ft 407 kts 315°
2026-05-03 21:49 -25.68880 152.35002 34126 ft 410 kts 315°
2026-05-03 21:49 -25.64375 152.31130 34137 ft 408 kts 316°
2026-05-03 21:50 -25.59906 152.27297 34145 ft 405 kts 316°
2026-05-03 21:50 -25.55469 152.23491 34146 ft 402 kts 316°
2026-05-03 21:51 -25.51076 152.19726 34151 ft 401 kts 316°
2026-05-03 21:51 -25.46661 152.15945 34145 ft 402 kts 316°
2026-05-03 21:52 -25.42237 152.12161 34147 ft 402 kts 316°
2026-05-03 21:52 -25.37809 152.08377 34151 ft 403 kts 316°
2026-05-03 21:53 -25.33355 152.04574 34159 ft 405 kts 316°
2026-05-03 21:53 -25.28876 152.00754 34155 ft 408 kts 316°
2026-05-03 21:54 -25.25139 151.97571 34145 ft 409 kts 316°
2026-05-03 21:54 -25.20645 151.93747 34137 ft 410 kts 316°
2026-05-03 21:55 -25.15383 151.89272 34136 ft 411 kts 316°
2026-05-03 21:55 -25.11561 151.86082 34147 ft 411 kts 317°
2026-05-03 21:56 -25.06960 151.82333 34145 ft 411 kts 318°
2026-05-03 21:56 -25.02387 151.78624 34146 ft 410 kts 318°
2026-05-03 21:57 -24.97795 151.74887 34145 ft 409 kts 318°
2026-05-03 21:57 -24.93224 151.71160 34144 ft 409 kts 318°
2026-05-03 21:58 -24.88632 151.67417 34158 ft 413 kts 318°
2026-05-03 21:58 -24.83964 151.63613 34156 ft 421 kts 318°
2026-05-03 21:59 -24.79241 151.59770 34159 ft 428 kts 318°
2026-05-03 21:59 -24.74416 151.55851 34152 ft 434 kts 318°
2026-05-03 22:00 -24.69540 151.51896 34145 ft 437 kts 318°
2026-05-03 22:00 -24.64686 151.47962 34141 ft 439 kts 319°
2026-05-03 22:01 -24.59737 151.43954 34132 ft 440 kts 319°
2026-05-03 22:01 -24.54807 151.39966 34133 ft 440 kts 319°
2026-05-03 22:02 -24.49940 151.36035 34130 ft 435 kts 319°
2026-05-03 22:02 -24.45068 151.32099 34151 ft 434 kts 319°
2026-05-03 22:03 -24.40192 151.28164 34142 ft 435 kts 319°
2026-05-03 22:03 -24.35315 151.24233 34144 ft 435 kts 319°
2026-05-03 22:04 -24.30437 151.20304 34134 ft 436 kts 319°
2026-05-03 22:04 -24.25543 151.16366 34130 ft 437 kts 319°
2026-05-03 22:05 -24.20631 151.12419 34138 ft 437 kts 319°
2026-05-03 22:05 -24.15719 151.08475 34125 ft 438 kts 319°
2026-05-03 22:06 -24.10803 151.04530 34128 ft 439 kts 319°
2026-05-03 22:06 -24.05875 151.00581 34122 ft 439 kts 319°
2026-05-03 22:07 -24.00960 150.96668 34115 ft 440 kts 319°
2026-05-03 22:07 -23.95975 150.92713 34124 ft 440 kts 319°
2026-05-03 22:08 -23.91051 150.88804 34126 ft 440 kts 319°
2026-05-03 22:08 -23.86089 150.84869 34122 ft 440 kts 319°
2026-05-03 22:09 -23.81129 150.80942 34129 ft 440 kts 319°
2026-05-03 22:10 -23.73673 150.75045 34126 ft 441 kts 319°
2026-05-03 22:10 -23.68700 150.71115 34128 ft 441 kts 319°
2026-05-03 22:11 -23.63726 150.67187 34123 ft 442 kts 319°
2026-05-03 22:11 -23.58744 150.63258 34119 ft 442 kts 319°
2026-05-03 22:12 -23.53756 150.59327 34113 ft 442 kts 319°
2026-05-03 22:12 -23.48836 150.55453 34106 ft 443 kts 319°
2026-05-03 22:13 -23.43906 150.51574 34101 ft 443 kts 319°
2026-05-03 22:13 -23.38809 150.47710 34101 ft 447 kts 325°
2026-05-03 22:14 -23.33104 150.45052 34110 ft 455 kts 335°
2026-05-03 22:14 -23.27106 150.42823 34109 ft 456 kts 335°
2026-05-03 22:15 -23.21140 150.40592 34110 ft 456 kts 335°
2026-05-03 22:15 -23.15198 150.38339 34114 ft 457 kts 335°
2026-05-03 22:16 -23.09159 150.36037 34121 ft 457 kts 335°
2026-05-03 22:16 -23.03154 150.33748 34123 ft 457 kts 335°
2026-05-03 22:17 -22.97143 150.31459 34122 ft 458 kts 335°
2026-05-03 22:17 -22.91221 150.29208 34119 ft 458 kts 335°
2026-05-03 22:18 -22.85189 150.26917 34119 ft 459 kts 335°
2026-05-03 22:18 -22.79241 150.24661 34121 ft 459 kts 335°
2026-05-03 22:19 -22.73143 150.22349 34114 ft 460 kts 335°
2026-05-03 22:19 -22.67101 150.20061 34115 ft 460 kts 335°
2026-05-03 22:20 -22.61054 150.17773 34117 ft 460 kts 335°
2026-05-03 22:20 -22.54997 150.15483 34120 ft 461 kts 335°
2026-05-03 22:21 -22.48942 150.13197 34115 ft 461 kts 335°
2026-05-03 22:21 -22.42875 150.10907 34115 ft 461 kts 335°
2026-05-03 22:22 -22.36853 150.08637 34112 ft 462 kts 335°
2026-05-03 22:22 -22.30785 150.06351 34113 ft 462 kts 335°
2026-05-03 22:23 -22.24708 150.04064 34105 ft 462 kts 335°
2026-05-03 22:23 -22.18630 150.01779 34110 ft 462 kts 335°
2026-05-03 22:24 -22.12558 149.99498 34103 ft 463 kts 335°
2026-05-03 22:24 -22.06463 149.97210 34105 ft 463 kts 335°
2026-05-03 22:25 -22.00589 149.94506 34106 ft 454 kts 324°
2026-05-03 22:25 -21.98008 149.92610 33869 ft 450 kts 315°
2026-05-03 22:25 -21.95673 149.90430 33841 ft 433 kts 314°
2026-05-03 22:25 -21.93475 149.88366 33748 ft 419 kts 314°
2026-05-03 22:26 -21.91285 149.86318 33671 ft 406 kts 314°
2026-05-03 22:26 -21.89172 149.84353 33522 ft 396 kts 314°
2026-05-03 22:26 -21.87099 149.82432 33138 ft 392 kts 315°
2026-05-03 22:26 -21.85031 149.80519 32626 ft 392 kts 315°
2026-05-03 22:27 -21.82956 149.78604 32136 ft 392 kts 315°
2026-05-03 22:27 -21.80912 149.76721 31720 ft 390 kts 315°
2026-05-03 22:27 -21.78856 149.74830 31331 ft 388 kts 316°
2026-05-03 22:27 -21.76811 149.72951 30941 ft 385 kts 316°
2026-05-03 22:28 -21.74779 149.71083 30543 ft 384 kts 316°
2026-05-03 22:28 -21.72752 149.69222 30139 ft 382 kts 316°
2026-05-03 22:28 -21.70733 149.67367 29670 ft 381 kts 316°
2026-05-03 22:28 -21.68727 149.65526 29249 ft 378 kts 316°
2026-05-03 22:29 -21.66732 149.63695 28833 ft 375 kts 316°
2026-05-03 22:29 -21.64758 149.61885 28410 ft 372 kts 316°
2026-05-03 22:29 -21.62793 149.60085 27989 ft 370 kts 317°
2026-05-03 22:29 -21.60838 149.58298 27572 ft 368 kts 317°
2026-05-03 22:30 -21.58891 149.56523 27171 ft 366 kts 317°
2026-05-03 22:30 -21.56957 149.54761 26778 ft 364 kts 317°
2026-05-03 22:30 -21.55033 149.53008 26395 ft 361 kts 317°
2026-05-03 22:30 -21.53120 149.51265 26011 ft 360 kts 317°
2026-05-03 22:31 -21.51218 149.49533 25628 ft 358 kts 317°
2026-05-03 22:31 -21.49324 149.47807 25260 ft 356 kts 317°
2026-05-03 22:31 -21.47442 149.46094 24901 ft 354 kts 317°
2026-05-03 22:31 -21.45567 149.44387 24542 ft 352 kts 318°
2026-05-03 22:32 -21.43700 149.42688 24183 ft 351 kts 318°
2026-05-03 22:32 -21.41846 149.41001 23832 ft 349 kts 318°
2026-05-03 22:32 -21.40003 149.39326 23460 ft 347 kts 318°
2026-05-03 22:32 -21.38165 149.37654 23054 ft 346 kts 318°
2026-05-03 22:33 -21.36378 149.36031 22656 ft 344 kts 318°
2026-05-03 22:33 -21.34514 149.34338 22260 ft 342 kts 318°
2026-05-03 22:33 -21.32776 149.32759 21897 ft 341 kts 318°
2026-05-03 22:33 -21.30943 149.31095 21509 ft 339 kts 318°
2026-05-03 22:34 -21.29151 149.29468 21127 ft 338 kts 318°
2026-05-03 22:34 -21.27367 149.27849 20764 ft 337 kts 318°
2026-05-03 22:34 -21.25603 149.26249 20409 ft 335 kts 318°
2026-05-03 22:34 -21.23826 149.24637 20054 ft 334 kts 318°
2026-05-03 22:35 -21.22068 149.23044 19690 ft 333 kts 318°
2026-05-03 22:35 -21.20307 149.21448 19354 ft 330 kts 319°
2026-05-03 22:35 -21.18539 149.19874 18971 ft 331 kts 323°
2026-05-03 22:35 -21.16563 149.18618 18625 ft 332 kts 334°
2026-05-03 22:36 -21.14381 149.17816 18285 ft 332 kts 342°
2026-05-03 22:36 -21.12157 149.17178 17923 ft 330 kts 343°
2026-05-03 22:36 -21.09937 149.16570 17548 ft 329 kts 344°
2026-05-03 22:36 -21.07726 149.15967 17194 ft 327 kts 344°
2026-05-03 22:37 -21.05531 149.15365 16864 ft 325 kts 344°
2026-05-03 22:37 -21.03349 149.14761 16515 ft 323 kts 344°
2026-05-03 22:37 -21.01182 149.14157 16195 ft 321 kts 344°
2026-05-03 22:37 -20.99022 149.13551 15859 ft 320 kts 344°
2026-05-03 22:38 -20.98324 149.13355 15749 ft 319 kts 344°
2026-05-03 22:38 -20.98132 149.13301 15720 ft 319 kts 344°
2026-05-03 22:38 -20.96877 149.12948 15523 ft 318 kts 344°
2026-05-03 22:38 -20.94740 149.12347 15211 ft 316 kts 344°
2026-05-03 22:39 -20.92619 149.11749 14886 ft 315 kts 344°
2026-05-03 22:39 -20.90494 149.11151 14523 ft 315 kts 344°
2026-05-03 22:39 -20.88382 149.10555 14244 ft 313 kts 345°
2026-05-03 22:39 -20.86279 149.09962 13914 ft 312 kts 345°
2026-05-03 22:40 -20.84180 149.09371 13546 ft 312 kts 345°
2026-05-03 22:40 -20.82089 149.08781 13207 ft 310 kts 345°
2026-05-03 22:40 -20.80011 149.08196 12900 ft 308 kts 345°
2026-05-03 22:40 -20.77941 149.07613 12569 ft 307 kts 345°
2026-05-03 22:41 -20.75886 149.07035 12226 ft 306 kts 345°
2026-05-03 22:41 -20.73827 149.06455 11894 ft 305 kts 345°
2026-05-03 22:41 -20.71776 149.05878 11584 ft 304 kts 345°
2026-05-03 22:41 -20.69736 149.05304 11288 ft 302 kts 345°
2026-05-03 22:42 -20.67732 149.04741 11158 ft 293 kts 345°
2026-05-03 22:42 -20.65779 149.04192 10976 ft 288 kts 345°
2026-05-03 22:42 -20.63900 149.03663 10728 ft 285 kts 345°
2026-05-03 22:42 -20.61942 149.03114 10420 ft 285 kts 345°
2026-05-03 22:43 -20.60022 149.02574 10100 ft 285 kts 345°
2026-05-03 22:43 -20.58127 149.02042 9787 ft 286 kts 345°
2026-05-03 22:43 -20.56207 149.01502 9469 ft 285 kts 346°
2026-05-03 22:43 -20.54293 149.00965 9153 ft 284 kts 346°
2026-05-03 22:44 -20.52387 149.00430 8849 ft 283 kts 346°
2026-05-03 22:44 -20.51102 149.00069 8651 ft 282 kts 347°
2026-05-03 22:44 -20.49204 148.99536 8335 ft 282 kts 347°
2026-05-03 22:44 -20.47306 148.99005 8020 ft 282 kts 347°
2026-05-03 22:45 -20.45444 148.98481 7746 ft 282 kts 347°
2026-05-03 22:45 -20.43675 148.97985 7447 ft 283 kts 347°
2026-05-03 22:45 -20.41761 148.97449 7068 ft 286 kts 348°
2026-05-03 22:45 -20.39830 148.96909 6701 ft 288 kts 348°
2026-05-03 22:46 -20.37880 148.96363 6314 ft 291 kts 348°
2026-05-03 22:46 -20.35916 148.95827 5928 ft 292 kts 352°
2026-05-03 22:46 -20.33917 148.95838 5521 ft 287 kts 15°
2026-05-03 22:46 -20.32002 148.96318 5154 ft 287 kts 17°
2026-05-03 22:47 -20.30079 148.96812 4740 ft 281 kts 17°
2026-05-03 22:47 -20.28200 148.97286 4342 ft 275 kts 17°
2026-05-03 22:47 -20.26341 148.97695 3942 ft 272 kts
2026-05-03 22:47 -20.24498 148.97426 3590 ft 275 kts 338°
2026-05-03 22:48 -20.23058 148.96217 3548 ft 255 kts 308°
2026-05-03 22:48 -20.22302 148.94596 3501 ft 236 kts 285°
2026-05-03 22:48 -20.22138 148.92956 3486 ft 211 kts 261°
2026-05-03 22:48 -20.22487 148.91541 3420 ft 188 kts 240°
2026-05-03 22:49 -20.23210 148.90351 2766 ft 201 kts 224°
2026-05-03 22:49 -20.24268 148.89387 2247 ft 200 kts 204°
2026-05-03 22:49 -20.25486 148.88883 2095 ft 178 kts 185°
2026-05-03 22:49 -20.26656 148.88787 1925 ft 159 kts 169°
2026-05-03 22:50 -20.27665 148.89034 1757 ft 141 kts 156°
2026-05-03 22:50 -20.28501 148.89489 1653 ft 132 kts 146°
2026-05-03 22:50 -20.29270 148.90003 1443 ft 128 kts 142°
2026-05-03 22:50 -20.30006 148.90564 1289 ft 134 kts 140°
2026-05-03 22:51 -20.30754 148.91160 1111 ft 134 kts 141°
2026-05-03 22:51 -20.31485 148.91746 939 ft 132 kts 141°
2026-05-03 22:51 -20.32222 148.92343 825 ft 133 kts 141°
2026-05-03 22:51 -20.32944 148.92936 735 ft 134 kts 142°
2026-05-03 22:52 -20.33706 148.93532 544 ft 137 kts 144°
2026-05-03 22:52 -20.34454 148.94120 322 ft 136 kts 142°
2026-05-03 22:52 -20.35194 148.94721 62 ft 129 kts 143°
2026-05-03 22:52 -20.35856 148.95248 129 ft 122 kts 146°
2026-05-03 22:53 -20.36585 148.95788 720 ft 137 kts 143°
2026-05-03 22:53 -20.37452 148.96465 1175 ft 177 kts 143°
2026-05-03 22:53 -20.38529 148.97360 1699 ft 211 kts 141°
2026-05-03 22:53 -20.39728 148.98347 2193 ft 214 kts 141°
2026-05-03 22:54 -20.40854 148.99256 2608 ft 194 kts 140°
2026-05-03 22:54 -20.41911 149.00106 2724 ft 188 kts 141°
2026-05-03 22:54 -20.43068 149.00655 2744 ft 186 kts 173°
2026-05-03 22:54 -20.44334 149.00300 2791 ft 198 kts 210°
2026-05-03 22:55 -20.45212 148.99138 2807 ft 207 kts 247°
2026-05-03 22:55 -20.45278 148.97628 2992 ft 210 kts 287°
2026-05-03 22:55 -20.44524 148.96374 3220 ft 213 kts 325°
2026-05-03 22:55 -20.43188 148.95845 3438 ft 205 kts
2026-05-03 22:56 -20.41749 148.95808 3678 ft 208 kts
2026-05-03 22:56 -20.40314 148.95766 3865 ft 206 kts
2026-05-03 22:56 -20.38914 148.95719 3969 ft 197 kts
2026-05-03 22:56 -20.37550 148.95670 4011 ft 204 kts
2026-05-03 22:57 -20.36118 148.95619 4004 ft 203 kts
2026-05-03 22:57 -20.34752 148.95642 3976 ft 187 kts 15°
2026-05-03 22:57 -20.33520 148.95965 4001 ft 183 kts 19°
2026-05-03 22:57 -20.32290 148.96277 3984 ft 179 kts 18°
2026-05-03 22:58 -20.31083 148.96578 3968 ft 179 kts 18°
2026-05-03 22:58 -20.29879 148.96877 4011 ft 177 kts 19°
2026-05-03 22:58 -20.28664 148.97179 3989 ft 180 kts 18°
2026-05-03 22:58 -20.27443 148.97481 3995 ft 181 kts 19°
2026-05-03 22:59 -20.26196 148.97700 3964 ft 185 kts
2026-05-03 22:59 -20.24959 148.97474 3865 ft 179 kts 341°
2026-05-03 22:59 -20.23947 148.96830 3726 ft 167 kts 324°
2026-05-03 22:59 -20.23029 148.95897 3869 ft 194 kts 309°
2026-05-03 23:00 -20.22343 148.94662 3553 ft 195 kts 290°
2026-05-03 23:00 -20.22122 148.93354 3528 ft 170 kts 265°
2026-05-03 23:00 -20.22330 148.92105 3501 ft 170 kts 246°
2026-05-03 23:00 -20.22794 148.90995 3498 ft 163 kts 233°
2026-05-03 23:01 -20.23489 148.90045 3440 ft 174 kts 218°
2026-05-03 23:01 -20.24632 148.89161 2770 ft 222 kts 202°
2026-05-03 23:01 -20.26133 148.88731 2163 ft 221 kts 171°
2026-05-03 23:01 -20.27596 148.89056 2007 ft 219 kts 163°
2026-05-03 23:02 -20.28979 148.89703 1827 ft 217 kts 141°
2026-05-03 23:02 -20.29957 148.90880 1672 ft 214 kts 119°
2026-05-03 23:02 -20.30370 148.92398 1539 ft 213 kts 95°
2026-05-03 23:02 -20.30109 148.93914 1493 ft 208 kts 65°
2026-05-03 23:03 -20.29134 148.95022 1474 ft 210 kts 36°
2026-05-03 23:03 -20.27788 148.95567 1482 ft 208 kts
2026-05-03 23:03 -20.26381 148.95491 1807 ft 210 kts 356°
2026-05-03 23:03 -20.24838 148.95265 2338 ft 235 kts 355°
2026-05-03 23:04 -20.23172 148.95007 2325 ft 242 kts 355°
2026-05-03 23:04 -20.21601 148.94571 2172 ft 235 kts 329°
2026-05-03 23:04 -20.20636 148.93260 2015 ft 218 kts 281°
2026-05-03 23:04 -20.20784 148.91825 1870 ft 190 kts 231°
2026-05-03 23:05 -20.21739 148.91103 1580 ft 159 kts 181°
2026-05-03 23:05 -20.22817 148.91058 1515 ft 157 kts 189°
2026-05-03 23:05 -20.23575 148.90270 1553 ft 167 kts 248°
2026-05-03 23:05 -20.23885 148.89135 1466 ft 158 kts 229°
2026-05-03 23:06 -20.24752 148.88664 1517 ft 136 kts 173°
2026-05-03 23:06 -20.25680 148.88842 1488 ft 137 kts 171°
2026-05-03 23:06 -20.26584 148.88462 1537 ft 147 kts 206°
2026-05-03 23:06 -20.27509 148.88055 1408 ft 142 kts 175°
2026-05-03 23:07 -20.28375 148.88390 1279 ft 133 kts 137°
2026-05-03 23:07 -20.28938 148.89150 1109 ft 128 kts 124°
2026-05-03 23:07 -20.29439 148.89924 971 ft 126 kts 127°
2026-05-03 23:07 -20.29987 148.90642 859 ft 124 kts 136°
2026-05-03 23:08 -20.30681 148.91194 749 ft 132 kts 143°
2026-05-03 23:08 -20.31448 148.91770 732 ft 133 kts 143°
2026-05-03 23:08 -20.32191 148.92352 601 ft 131 kts 141°
2026-05-03 23:08 -20.32897 148.92960 577 ft 130 kts 137°
2026-05-03 23:09 -20.33645 148.93572 502 ft 136 kts 146°
2026-05-03 23:09 -20.34440 148.94101 270 ft 134 kts 143°
2026-05-03 23:09 -20.35196 148.94725 55 ft 138 kts 145°
2026-05-03 23:09 -20.35886 148.95271 24 ft 87 kts 142°
2026-05-03 23:10 -20.36135 148.95470 22 ft 36 kts 143°
2026-05-03 23:10 -20.36295 148.95600 23 ft 17 kts 140°
2026-05-03 23:10 -20.36394 148.95635 28 ft 5 kts 163°
2026-05-03 23:10 -20.36410 148.95667 25 ft 5 kts 84°
2026-05-03 23:11 -20.36384 148.95678 28 ft 6 kts 358°
2026-05-03 23:11 -20.36330 148.95637 29 ft 16 kts 320°
2026-05-03 23:11 -20.36208 148.95540 23 ft 26 kts 316°
2026-05-03 23:11 -20.36043 148.95399 21 ft 35 kts 323°
2026-05-03 23:12 -20.35822 148.95226 27 ft 42 kts 323°
2026-05-03 23:12 -20.35591 148.95038 27 ft 41 kts 323°
2026-05-03 23:12 -20.35388 148.94875 27 ft 33 kts 322°
2026-05-03 23:12 -20.35272 148.94815 25 ft 13 kts 26°
2026-05-03 23:13 -20.35232 148.94883 21 ft 10 kts 86°
2026-05-03 23:13 -20.35237 148.94938 20 ft 0 kts 96°
2026-05-03 23:14 -20.35223 148.94931 20 ft 0 kts 304°